| time (UTC) | temp F | wind direction | speed MPH | gust MPH | rain 1hr in | rain 24hr in | rain mn in | humidity % | barometer mb |
| 20260507210121 | 68 | 299 | 5.0 | 9.0 | 0.00 | 0.20 | 0.15 | 35 | 1005.7 |
| 20260507205121 | 69 | 270 | 6.0 | 12.0 | 0.00 | 0.20 | 0.15 | 35 | 1005.7 |
| 20260507204131 | 69 | 309 | 5.0 | 7.0 | 0.00 | 0.20 | 0.15 | 36 | 1005.6 |
| 20260507204122 | 69 | 311 | 5.0 | 7.0 | 0.00 | 0.20 | 0.15 | 36 | 1005.6 |
| 20260507203122 | 68 | 12 | 4.0 | 6.0 | 0.00 | 0.20 | 0.15 | 36 | 1005.7 |
| 20260507202122 | 70 | 28 | 4.0 | 6.0 | 0.00 | 0.20 | 0.15 | 36 | 1005.8 |
| 20260507201121 | 69 | 293 | 4.0 | 10.0 | 0.00 | 0.20 | 0.15 | 36 | 1005.6 |
| 20260507200124 | 69 | 313 | 5.0 | 7.0 | 0.00 | 0.20 | 0.15 | 37 | 1005.8 |
| 20260507195121 | 68 | 336 | 4.0 | 7.0 | 0.00 | 0.20 | 0.15 | 37 | 1005.8 |
| 20260507194121 | 68 | 35 | 4.0 | 7.0 | 0.00 | 0.20 | 0.15 | 37 | 1005.9 |
| 20260507193121 | 69 | 317 | 5.0 | 10.0 | 0.00 | 0.21 | 0.15 | 37 | 1006.0 |
| 20260507192121 | 68 | 355 | 4.0 | 8.0 | 0.00 | 0.22 | 0.15 | 37 | 1006.1 |
| 20260507191124 | 68 | 309 | 4.0 | 8.0 | 0.00 | 0.22 | 0.15 | 37 | 1006.2 |
| 20260507190121 | 69 | 103 | 4.0 | 7.0 | 0.00 | 0.22 | 0.15 | 37 | 1006.2 |
| 20260507185148 | 69 | 328 | 5.0 | 8.0 | 0.00 | 0.22 | 0.15 | 35 | 1006.4 |
| 20260507184121 | 67 | 74 | 5.0 | 13.0 | 0.00 | 0.22 | 0.15 | 38 | 1006.5 |
| 20260507183123 | 68 | 0 | 4.0 | 8.0 | 0.00 | 0.22 | 0.15 | 39 | 1006.6 |
| 20260507182122 | 68 | 302 | 5.0 | 10.0 | 0.00 | 0.22 | 0.15 | 37 | 1006.8 |
| 20260507181144 | 67 | 329 | 5.0 | 10.0 | 0.00 | 0.22 | 0.15 | 39 | 1007.1 |
| 20260507180122 | 67 | 297 | 4.0 | 8.0 | 0.00 | 0.22 | 0.15 | 39 | 1007.1 |
| 20260507175122 | 67 | 300 | 5.0 | 9.0 | 0.00 | 0.22 | 0.15 | 39 | 1007.2 |
| 20260507174122 | 67 | 326 | 3.0 | 6.0 | 0.00 | 0.22 | 0.15 | 41 | 1007.1 |
| 20260507173122 | 67 | 19 | 4.0 | 9.0 | 0.00 | 0.22 | 0.15 | 41 | 1007.2 |
| 20260507172144 | 66 | 29 | 4.0 | 6.0 | 0.00 | 0.23 | 0.15 | 43 | 1007.5 |
| 20260507171121 | 67 | 298 | 4.0 | 9.0 | 0.00 | 0.23 | 0.15 | 43 | 1007.6 |
| 20260507170121 | 66 | 302 | 5.0 | 9.0 | 0.00 | 0.23 | 0.15 | 44 | 1007.8 |
| 20260507165121 | 66 | 338 | 4.0 | 7.0 | 0.00 | 0.24 | 0.15 | 46 | 1007.8 |
| 20260507164124 | 66 | 310 | 4.0 | 8.0 | 0.00 | 0.24 | 0.15 | 50 | 1007.8 |
| 20260507163122 | 64 | 336 | 5.0 | 9.0 | 0.00 | 0.24 | 0.15 | 53 | 1008.1 |
| 20260507162144 | 65 | 302 | 4.0 | 10.0 | 0.00 | 0.24 | 0.15 | 53 | 1008.2 |
| 20260507161121 | 64 | 23 | 5.0 | 8.0 | 0.00 | 0.24 | 0.15 | 54 | 1008.5 |
| 20260507160121 | 66 | 329 | 3.0 | 9.0 | 0.00 | 0.24 | 0.15 | 55 | 1008.6 |
| 20260507155145 | 63 | 0 | 5.0 | 10.0 | 0.00 | 0.24 | 0.15 | 56 | 1008.6 |
| 20260507154122 | 63 | 337 | 4.0 | 7.0 | 0.00 | 0.24 | 0.15 | 60 | 1008.6 |
| 20260507153121 | 62 | 307 | 4.0 | 9.0 | 0.00 | 0.24 | 0.15 | 57 | 1008.8 |
| 20260507152121 | 62 | 322 | 4.0 | 9.0 | 0.00 | 0.24 | 0.15 | 60 | 1008.8 |
| 20260507151121 | 61 | 326 | 4.0 | 7.0 | 0.00 | 0.24 | 0.15 | 62 | 1008.9 |
| 20260507150121 | 60 | 321 | 3.0 | 6.0 | 0.00 | 0.24 | 0.15 | 67 | 1008.9 |
| 20260507145127 | 60 | 309 | 4.0 | 7.0 | 0.00 | 0.24 | 0.15 | 66 | 1009.1 |
| 20260507144123 | 60 | 314 | 4.0 | 7.0 | 0.00 | 0.24 | 0.15 | 68 | 1009.0 |
| 20260507143146 | 59 | 326 | 3.0 | 6.0 | 0.00 | 0.24 | 0.15 | 73 | 1008.9 |
| 20260507142124 | 58 | 314 | 3.0 | 6.0 | 0.00 | 0.24 | 0.15 | 78 | 1009.0 |
| 20260507141122 | 58 | 319 | 4.0 | 9.0 | 0.00 | 0.24 | 0.15 | 78 | 1009.0 |
| 20260507140122 | 57 | 336 | 3.0 | 6.0 | 0.00 | 0.24 | 0.15 | 83 | 1009.0 |
| 20260507135122 | 55 | 304 | 5.0 | 9.0 | 0.00 | 0.24 | 0.15 | 84 | 1009.0 |
| 20260507134122 | 56 | 316 | 4.0 | 8.0 | 0.00 | 0.24 | 0.15 | 80 | 1008.9 |
| 20260507133143 | 56 | 340 | 3.0 | 6.0 | 0.00 | 0.24 | 0.15 | 83 | 1009.0 |
| 20260507132121 | 55 | 235 | 3.0 | 4.0 | 0.00 | 0.24 | 0.15 | 87 | 1009.1 |
| 20260507131123 | 55 | 315 | 4.0 | 9.0 | 0.00 | 0.24 | 0.15 | 86 | 1009.2 |
| 20260507130126 | 54 | 317 | 5.0 | 8.0 | 0.00 | 0.24 | 0.15 | 88 | 1009.2 |
| 20260507125142 | 54 | 312 | 4.0 | 8.0 | 0.00 | 0.24 | 0.15 | 89 | 1009.1 |
| 20260507124121 | 52 | 323 | 3.0 | 7.0 | 0.00 | 0.24 | 0.15 | 94 | 1009.2 |
| 20260507123123 | 51 | 329 | 4.0 | 7.0 | 0.00 | 0.24 | 0.15 | 95 | 1009.1 |
| 20260507122123 | 51 | 307 | 4.0 | 7.0 | 0.00 | 0.24 | 0.15 | 95 | 1009.0 |
| 20260507121121 | 51 | 285 | 3.0 | 7.0 | 0.00 | 0.24 | 0.15 | 95 | 1008.9 |
| 20260507120129 | 51 | 302 | 3.0 | 6.0 | 0.00 | 0.24 | 0.15 | 95 | 1008.9 |
| 20260507115143 | 51 | 320 | 4.0 | 9.0 | 0.00 | 0.24 | 0.15 | 96 | 1008.7 |
| 20260507114121 | 51 | 287 | 3.0 | 6.0 | 0.00 | 0.24 | 0.15 | 98 | 1008.5 |
| 20260507113123 | 50 | 301 | 3.0 | 5.0 | 0.00 | 0.24 | 0.15 | 99 | 1008.6 |
| 20260507112121 | 50 | 321 | 2.0 | 5.0 | 0.00 | 0.24 | 0.15 | 99 | 1008.2 |
| 20260507111124 | 50 | 324 | 2.0 | 5.0 | 0.00 | 0.24 | 0.15 | 99 | 1008.2 |
| 20260507110123 | 50 | 305 | 4.0 | 6.0 | 0.00 | 0.24 | 0.15 | 99 | 1008.2 |
| 20260507105124 | 50 | 320 | 3.0 | 5.0 | 0.00 | 0.24 | 0.15 | 99 | 1008.2 |
| 20260507104125 | 49 | 315 | 4.0 | 7.0 | 0.00 | 0.24 | 0.15 | 99 | 1008.1 |
| 20260507103124 | 49 | 312 | 4.0 | 7.0 | 0.00 | 0.24 | 0.15 | 99 | 1008.0 |
| 20260507102121 | 49 | 295 | 3.0 | 7.0 | 0.00 | 0.24 | 0.15 | 99 | 1007.7 |
| 20260507101145 | 49 | 324 | 4.0 | 7.0 | 0.00 | 0.24 | 0.15 | 99 | 1007.5 |
| 20260507100147 | 49 | 306 | 4.0 | 6.0 | 0.00 | 0.24 | 0.15 | 99 | 1007.5 |
| 20260507095143 | 49 | 308 | 3.0 | 5.0 | 0.01 | 0.24 | 0.15 | 99 | 1007.5 |
| 20260507094145 | 49 | 324 | 3.0 | 6.0 | 0.01 | 0.24 | 0.15 | 99 | 1007.5 |
| 20260507093122 | 49 | 332 | 4.0 | 7.0 | 0.01 | 0.24 | 0.15 | 99 | 1007.2 |
| 20260507092121 | 49 | 312 | 3.0 | 5.0 | 0.01 | 0.24 | 0.15 | 99 | 1007.5 |
| 20260507091142 | 49 | 303 | 3.0 | 5.0 | 0.01 | 0.24 | 0.15 | 99 | 1007.4 |
| 20260507090121 | 49 | 309 | 4.0 | 8.0 | 0.01 | 0.24 | 0.15 | 99 | 1007.5 |
| 20260507085143 | 50 | 312 | 5.0 | 8.0 | 0.00 | 0.23 | 0.14 | 99 | 1007.5 |
| 20260507084125 | 50 | 331 | 5.0 | 9.0 | 0.00 | 0.23 | 0.14 | 99 | 1007.0 |
| 20260507083121 | 50 | 294 | 5.0 | 9.0 | 0.00 | 0.23 | 0.14 | 99 | 1007.2 |
| 20260507082121 | 50 | 315 | 5.0 | 9.0 | 0.00 | 0.23 | 0.14 | 99 | 1007.1 |
| 20260507081142 | 50 | 309 | 5.0 | 9.0 | 0.00 | 0.23 | 0.14 | 99 | 1007.2 |
| 20260507080122 | 51 | 352 | 4.0 | 8.0 | 0.01 | 0.23 | 0.14 | 99 | 1007.2 |
| 20260507075142 | 51 | 293 | 3.0 | 6.0 | 0.01 | 0.23 | 0.14 | 99 | 1007.4 |
| 20260507074142 | 51 | 321 | 3.0 | 8.0 | 0.04 | 0.23 | 0.14 | 99 | 1007.5 |
| 20260507073121 | 51 | 312 | 5.0 | 9.0 | 0.07 | 0.23 | 0.14 | 99 | 1007.2 |
| 20260507072142 | 51 | 320 | 4.0 | 9.0 | 0.10 | 0.23 | 0.14 | 99 | 1007.2 |
| 20260507071121 | 52 | 302 | 3.0 | 6.0 | 0.13 | 0.23 | 0.14 | 99 | 1007.1 |
| 20260507070125 | 52 | 296 | 4.0 | 7.0 | 0.13 | 0.22 | 0.13 | 99 | 1006.5 |
| 20260507065121 | 52 | 322 | 3.0 | 5.0 | 0.13 | 0.22 | 0.13 | 99 | 1006.5 |
| 20260507064124 | 53 | 321 | 3.0 | 6.0 | 0.10 | 0.19 | 0.10 | 99 | 1007.2 |
| 20260507063145 | 53 | 302 | 3.0 | 7.0 | 0.07 | 0.16 | 0.07 | 99 | 1006.8 |
| 20260507062121 | 53 | 273 | 3.0 | 5.0 | 0.04 | 0.13 | 0.04 | 99 | 1006.2 |
| 20260507061122 | 54 | 280 | 3.0 | 5.0 | 0.01 | 0.10 | 0.01 | 99 | 1006.8 |
| 20260507060122 | 55 | 292 | 3.0 | 7.0 | 0.00 | 0.09 | 0.00 | 97 | 1006.8 |
| 20260507055143 | 56 | 282 | 3.0 | 7.0 | 0.00 | 0.09 | 0.00 | 97 | 1006.8 |
| 20260507054123 | 56 | 310 | 2.0 | 4.0 | 0.00 | 0.09 | 0.00 | 99 | 1006.4 |
| 20260507053123 | 56 | 8 | 2.0 | 4.0 | 0.00 | 0.09 | 0.00 | 99 | 1006.2 |
| 20260507052121 | 56 | 303 | 2.0 | 6.0 | 0.00 | 0.09 | 0.00 | 99 | 1006.4 |
| 20260507051121 | 56 | 285 | 2.0 | 4.0 | 0.00 | 0.09 | 0.00 | 99 | 1006.5 |
| 20260507050142 | 56 | 281 | 2.0 | 5.0 | 0.00 | 0.09 | 0.00 | 99 | 1006.4 |
| 20260507045121 | 56 | 284 | 2.0 | 4.0 | 0.00 | 0.09 | 0.00 | 99 | 1006.4 |
| 20260507044142 | 56 | 285 | 2.0 | 4.0 | 0.00 | 0.09 | 0.00 | 99 | 1006.7 |
| 20260507043125 | 56 | 295 | 2.0 | 3.0 | 0.00 | 0.09 | 0.00 | 99 | 1007.0 |
| 20260507042123 | 56 | 294 | 2.0 | 4.0 | 0.00 | 0.09 | 0.00 | 99 | 1006.8 |
| 20260507041124 | 57 | 281 | 2.0 | 3.0 | 0.00 | 0.09 | 0.00 | 99 | 1006.9 |
| 20260507040121 | 57 | 295 | 2.0 | 6.0 | 0.00 | 0.09 | 0.00 | 99 | 1006.7 |
| 20260507035121 | 57 | 320 | 2.0 | 3.0 | 0.01 | 0.09 | 0.09 | 99 | 1006.7 |
| 20260507034145 | 57 | 288 | 3.0 | 5.0 | 0.01 | 0.09 | 0.09 | 99 | 1006.7 |
| 20260507033121 | 57 | 299 | 2.0 | 5.0 | 0.01 | 0.09 | 0.09 | 99 | 1006.6 |
| 20260507032142 | 57 | 280 | 4.0 | 7.0 | 0.01 | 0.09 | 0.09 | 99 | 1006.4 |
| 20260507031121 | 57 | 320 | 4.0 | 6.0 | 0.02 | 0.09 | 0.09 | 99 | 1006.5 |
| 20260507030143 | 58 | 334 | 4.0 | 6.0 | 0.03 | 0.09 | 0.09 | 99 | 1006.5 |
| 20260507025123 | 58 | 0 | 1.0 | 3.0 | 0.02 | 0.08 | 0.08 | 99 | 1006.6 |
| 20260507024121 | 58 | 203 | 0.0 | 0.0 | 0.02 | 0.08 | 0.08 | 99 | 1006.6 |
| 20260507023122 | 58 | 338 | 0.0 | 0.0 | 0.04 | 0.08 | 0.08 | 99 | 1006.8 |
| 20260507022123 | 58 | 265 | 2.0 | 4.0 | 0.04 | 0.08 | 0.08 | 99 | 1006.6 |
| 20260507021123 | 58 | 95 | 1.0 | 4.0 | 0.03 | 0.07 | 0.07 | 99 | 1006.0 |
| 20260507020122 | 58 | 96 | 0.0 | 2.0 | 0.02 | 0.06 | 0.06 | 99 | 1006.0 |
| 20260507015143 | 58 | 158 | 0.0 | 0.0 | 0.02 | 0.06 | 0.06 | 99 | 1006.4 |
| 20260507014122 | 58 | 207 | 1.0 | 2.0 | 0.02 | 0.06 | 0.06 | 99 | 1006.6 |
| 20260507013143 | 58 | 220 | 1.0 | 2.0 | 0.00 | 0.04 | 0.04 | 99 | 1006.2 |
| 20260507012142 | 58 | 213 | 0.0 | 2.0 | 0.00 | 0.04 | 0.04 | 99 | 1006.1 |
| 20260507011143 | 58 | 196 | 0.0 | 2.0 | 0.00 | 0.04 | 0.04 | 99 | 1006.2 |
| 20260507010121 | 58 | 212 | 1.0 | 2.0 | 0.00 | 0.04 | 0.04 | 99 | 1006.2 |
| 20260507005121 | 58 | 225 | 1.0 | 3.0 | 0.00 | 0.04 | 0.04 | 99 | 1006.2 |
| 20260507004142 | 59 | 263 | 1.0 | 2.0 | 0.00 | 0.04 | 0.04 | 99 | 1006.0 |
| 20260507003144 | 59 | 177 | 1.0 | 3.0 | 0.00 | 0.04 | 0.04 | 99 | 1006.2 |
| 20260507002121 | 59 | 195 | 1.0 | 2.0 | 0.00 | 0.04 | 0.04 | 99 | 1006.2 |
| 20260507001123 | 59 | 166 | 0.0 | 2.0 | 0.00 | 0.04 | 0.04 | 99 | 1006.2 |
| 20260507000121 | 59 | 241 | 1.0 | 3.0 | 0.00 | 0.04 | 0.04 | 99 | 1006.0 |
| 20260506235123 | 59 | 251 | 1.0 | 2.0 | 0.00 | 0.04 | 0.04 | 99 | 1006.0 |
| 20260506234145 | 59 | 182 | 1.0 | 3.0 | 0.00 | 0.04 | 0.04 | 99 | 1005.8 |
| 20260506233121 | 59 | 223 | 1.0 | 3.0 | 0.00 | 0.04 | 0.04 | 99 | 1006.0 |
| 20260506232142 | 59 | 200 | 1.0 | 3.0 | 0.00 | 0.04 | 0.04 | 99 | 1005.9 |
| 20260506231124 | 59 | 263 | 1.0 | 3.0 | 0.00 | 0.04 | 0.04 | 99 | 1005.8 |
| 20260506230121 | 59 | 250 | 2.0 | 4.0 | 0.00 | 0.04 | 0.04 | 99 | 1005.7 |
| 20260506225121 | 59 | 275 | 2.0 | 3.0 | 0.00 | 0.04 | 0.04 | 99 | 1005.7 |
| 20260506224144 | 59 | 255 | 2.0 | 3.0 | 0.00 | 0.04 | 0.04 | 99 | 1005.7 |
| 20260506223122 | 58 | 277 | 2.0 | 4.0 | 0.00 | 0.04 | 0.04 | 99 | 1005.6 |
| 20260506222122 | 59 | 234 | 3.0 | 4.0 | 0.00 | 0.04 | 0.04 | 99 | 1005.7 |
| 20260506221122 | 59 | 235 | 2.0 | 4.0 | 0.00 | 0.04 | 0.04 | 99 | 1005.7 |
| 20260506220122 | 59 | 242 | 3.0 | 5.0 | 0.00 | 0.04 | 0.04 | 99 | 1005.6 |
| 20260506215124 | 60 | 247 | 2.0 | 5.0 | 0.00 | 0.04 | 0.04 | 99 | 1005.6 |
| 20260506214123 | 60 | 237 | 2.0 | 4.0 | 0.00 | 0.04 | 0.04 | 99 | 1005.2 |
| 20260506213122 | 60 | 241 | 2.0 | 4.0 | 0.00 | 0.04 | 0.04 | 99 | 1005.2 |
| 20260506212124 | 60 | 236 | 3.0 | 5.0 | 0.00 | 0.04 | 0.04 | 99 | 1005.1 |
| 20260506211122 | 60 | 237 | 1.0 | 5.0 | 0.00 | 0.04 | 0.04 | 99 | 1005.0 |